www.pogodaiklimat.ru

Погода и климат >> Архив погоды >> Россия >> Нижегородская область >> Нижний Новгород аэропорт


ПОГОДА в Нижнем Новгороде аэропорт

  • Прогноз погоды в Нижнем Новгороде аэропорт
  • Монитор погоды в Нижнем Новгороде аэропорт
  • Климат города

АРХИВ ПОГОДЫ в Нижнем Новгороде аэропорт

Время (UTC), дата Ветер
(напр.,м/с)
 
Видим.   Явления Облачность Т
(С)
Тd
(С)
f
(%)
Тe
(С)
Тes
(С)
Комфортность P
(гПа)
Po
(гПа)
Тmin
(С)
Tmax
(С)
R
(мм)
R24
(мм)
S
(см)
09 14.06 С 5-7
{9}
10 км 9/8 1200 м
[Sc Ci fib]
+12.6 +3.0 52 +11 +12 1015.3 1015.0
12 14.06 С 5-8
{11}
10 км 6/5 1380 м
[Cu hum Ci fib]
+15.5 +3.6 45 +14 +17 1015.5 1016.0
15 14.06 С 5-7
{11}
10 км 6/4 1000 м
[Cu hum Ci fib]
+15.8 +3.6 44 +15 +16 1015.7 1016.0 +16.2
18 14.06 С 3-3
{6}
10 км 8/0
[Ac und Ci fib]
+10.8 +6.2 73 +9 +9 1016.7 1017.0
21 14.06 С 1-1
{5}
10 км 8/0
[Ac trans Ci fib]
+6.6 +4.8 88 +6 +6 1018.4 1018.0
00 15.06 З 2-2
{2}
10 км 8/0
[Ac trans Ci fib]
+4.8 +3.9 94 +2 +2 1019.5 1020.0
03 15.06 штиль 0
{2}
10 км 6/0
[Ci fib]
+9.1 +5.8 80 +8 +11 1020.6 1021.0 +4.0
06 15.06 С 4-6
{7}
10 км 5/0
[Ci fib]
+13.4 -0.2 39 +12 +18 1020.6 1021.0
09 15.06 нст 3-6
{9}
10 км 4/4 1000 м
[Cu hum]
+15.7 +0.7 36 +15 +23 1020.2 1020.0
12 15.06 С 5-8
{8}
10 км 5/5 1000 м
[Cu hum]
+18.7 +3.0 35 +19 +21 1019.4 1019.0
15 15.06 С 4-5
{9}
10 км 8/4 1000 м
[Cu hum Ci fib]
+16.9 +3.9 42 +16 +17 1019.2 1019.0 +18.8
18 15.06 штиль 0-1
{8}
10 км 4/0
[Ac trans Ci fib]
+11.8 +6.9 72 +11 +11 1019.3 1019.0
21 15.06 штиль 0-1
{2}
10 км 6/0
[Ac trans Ci fib]
+8.9 +7.0 88 +8 +8 1019.7 1020.0
00 16.06 штиль 0
{2}
10 км 8/0
[Ac trans Ci fib]
+9.4 +7.0 85 +9 +9 1020.2 1020.0
03 16.06 нст 1-2
{2}
10 км 8/3 1500 м
[Sc Ac trans]
+13.7 +8.1 69 +14 +15 1020.6 1021.0 +8.4
06 16.06 С 4-6
{6}
10 км 4/3 1000 м
[Cu hum Ci fib]
+18.5 +4.7 40 +19 +23 1020.4 1020.0
09 16.06 С 5-8
{9}
10 км 4/3 1000 м
[Cu hum Ci fib]
+19.8 +3.1 33 +20 +26 1020.0 1020.0
12 16.06 С 3-6
{9}
10 км 4/3 1000 м
[Cu hum Ci fib]
+20.9 +3.2 31 +22 +28 комфорт 1019.4 1019.0
15 16.06 С 4-6
{8}
10 км 3/3 1000 м
[Cu hum]
+21.3 +4.0 32 +22 +23 комфорт 1019.1 1019.0 +21.7
18 16.06 З 2-2
{6}
10 км 3/0
[Ac trans]
+14.6 +8.8 68 +14 +14 1019.1 1019.0
21 16.06 штиль 0
{2}
9000 м ясно +10.7 +7.6 81 +10 +10 1019.8 1020.0
00 17.06 штиль 0
{1}
8000 м ясно +8.4 +7.0 91 +7 +7 1020.3 1020.0
03 17.06 штиль 0-2
{2}
9000 м 3/0
[Ci fib]
+14.7 +8.0 64 +15 +17 1020.2 1020.0 +8.2
06 17.06 С 3-6
{6}
10 км 8/0
[Ci fib]
+21.8 +8.3 42 +23 +30 комфорт 1019.0 1019.0
09 17.06 СЗ 5-6
{6}
10 км 8/3 1000 м
[Cu hum Ci fib]
+25.1 +7.3 32 +25 +30 комфорт 1017.8 1018.0
12 17.06 С 5-9
{11}
10 км 6/4 1000 м
[Cu hum Ci fib]
+26.1 +9.5 35 +27 +30 жарко 1016.5 1017.0
15 17.06 С 5-8
{10}
10 км 6/3 1000 м
[Cu hum Ac trans Ci fib]
+25.4 +11.2 41 +27 +27 жарко 1015.7 1016.0 +26.8
18 17.06 штиль 0-5
{7}
10 км 4/1 1000 м
[Cu hum Ac trans]
+19.3 +13.0 67 +20 +20 1015.9 1016.0
21 17.06 З 1-2
{2}
10 км 3/0
[Ci fib]
+14.8 +12.3 85 +15 +15 1016.2 1016.0
00 18.06 штиль 0-2
{2}
10 км 3/0
[Ac trans]
+13.2 +11.9 92 +13 +13 1016.4 1016.0
03 18.06 СЗ 2-3
{3}
10 км 4/1 1000 м
[Cu hum Ac trans]
+17.6 +13.7 78 +18 +20 1016.1 1016.0 +13.2
06 18.06 нст 1-4
{4}
10 км 4/1 1000 м
[Cu hum Ci fib]
+22.7 +15.0 62 +27 +37 душно 1015.3 1015.0
09 18.06 С 4-6
{7}
10 км 4/3 1000 м
[Cu med, cong Ci fib]
+26.6 +11.9 40 +28 +35 жарко 1014.6 1015.0
12 18.06 С 5-9
{9}
10 км 4/3 1000 м
[Cu med, cong Ci fib]
+28.1 +7.4 27 +27 +31 жарко 1013.7 1014.0
15 18.06 С 3-5
{10}
10 км 4/1 1000 м
[Cu hum Ci fib]
+27.6 +8.5 30 +27 +29 жарко 1012.7 1013.0 +28.7
18 18.06 штиль 0-2
{5}
10 км 4/0
[Ac trans Ci fib]
+20.1 +12.6 62 +22 +22 комфорт 1013.2 1013.0
21 18.06 штиль 0-1
{3}
10 км 4/0
[Ac trans Ci fib]
+16.0 +13.3 84 +16 +16 1013.4 1013.0
00 19.06 штиль 0
{3}
10 км 9/0
[Ac trans Ci fib]
+17.5 +14.6 83 +17 +17 1013.2 1013.0
03 19.06 штиль 0-1
{3}
10 км 6/0
[Ac trans Ci fib]
+19.3 +14.8 75 +21 +23 комфорт 1012.8 1013.0 +15.1
06 19.06 З 3-4
{4}
10 км 4/0
[Ci fib]
+25.2 +14.6 52 +28 +36 жарко 1012.0 1012.0
09 19.06 ЮЗ 6-8
{8}
10 км гроза без осадков {ливн. осадки} 5/5 1000 м
[Cb cap]
+27.8 +12.2 38 +29 +32 жарко 1010.5 1011.0
12 19.06 Ю 4-6
{9}
10 км {гроза, ливн. осадки} 5/3 1000 м
[Cu hum Ac trans]
+28.2 +12.9 39 +30 +34 жарко 1008.6 1009.0
15 19.06 ЮЗ 4-6
{10}
10 км 9/3 1000 м
[Cu hum Ci fib]
+26.8 +11.3 38 +28 +29 жарко 1007.6 1008.0 +29.0 0.0
18 19.06 Ю 2-2
{10}
10 км 9/3 1000 м
[Sc Ac trans Ci fib]
+22.1 +14.5 62 +25 +25 комфорт 1007.3 1007.0
21 19.06 ЮЗ 3-5
{5}
10 км 8/3 1000 м
[Sc Ac trans]
+20.3 +14.9 71 +23 +23 комфорт 1006.1 1006.0
00 20.06 ЮЗ 3-3
{7}
10 км 9/4 1000 м
[Sc Ac trans]
+18.8 +15.3 80 +20 +20 1004.6 1005.0
03 20.06 ЮЗ 4-5
{7}
10 км слабый ливневой дождь 10/6 600 м
[Cb cap Ac As]
+17.6 +15.2 86 +17 +18 1002.9 1003.0 +17.6 0.4
06 20.06 СЗ 5-8
{23}
10 км в посл. час ливневой дождь 9/5 1000 м
[Cb cap Ac trans]
+15.2 +12.2 82 +14 +15 1003.5 1004.0 +13.8
09 20.06 З 8-12
{15}
10 км {дождь} 5/5 1000 м
[Cu hum]
+19.3 +7.7 47 +19 +21 1004.0 1004.0
12 20.06 СЗ 7-13
{16}
10 км {дождь} 5/5 1000 м
[Cu hum]
+19.9 +5.6 39 +20 +22 1004.4 1004.0
15 20.06 СЗ 3-5
{21}
10 км в посл. час ливневой дождь 6/6 300 м
[Cb cap]
+15.0 +10.2 73 +14 +15 1005.9 1006.0 +22.1 3
18 20.06 ЮЗ 3-4
{9}
10 км {ливн. осадки} 6/6 300 м
[Cb cap]
+14.4 +9.8 74 +14 +14 1005.4 1005.0
21 20.06 З 4-6
{11}
10 км 3/0
[Ac trans]
+13.9 +7.9 67 +13 +13 1006.0 1006.0
00 21.06 З 5-7
{8}
10 км ясно +12.1 +7.0 71 +10 +10 1006.7 1007.0
03 21.06 З 4-7
{10}
10 км 3/0
[Ci fib]
+13.6 +7.8 68 +12 +14 1007.0 1007.0 +11.8

 

Местоположение метеостанции Нижний Новгород аэропорт (Нижегородская область, Россия): широта 56.22 долгота 43.77 высота над уровнем моря 77 м.

В архиве по умолчанию представлена погода в Нижнем Новгороде аэропорт за последнюю неделю. Архивные данные за месяц целиком и за предыдущие месяцы, начиная с января 2011 года, Вы можете получить, выбрав интересующий диапазон дат из раскрывающегося списка и нажав кнопку "Ввод!".


*Определитесь, кто Вы:
робот инопланетянин человек

Внимание! Время в таблицах - всемирное. Для получения местного времени необходимо прибавить поправку, которая в Нижнем Новгороде аэропорт равна 3 ч.

Смотрите также архив погоды в соседних городах и на ближайших метеорологических станциях:

Погода в Нижнем Новгороде (Нижегородская область, Россия) (15 км)
Погода в Балахне (Нижегородская область, Россия) (45 км)
Погода в Дальнем Константиново (Нижегородская область, Россия) (51 км)
Погода в Павлово (Нижегородская область, Россия) (55 км)
Погода в Волжской ГМО (Нижегородская область, Россия) (55 км)
Погода в Семенове (Нижегородская область, Россия) (73 км)
Погода в Лысково (Нижегородская область, Россия) (82 км)
Погода в Арзамасе (Нижегородская область, Россия) (95 км)
Погода в Вязниках (Владимирская область, Россия) (99 км)
Погода в Воскресенском (Нижегородская область, Россия) (121 км)

Пояснения к столбцам:

Ветер - указаны скорость ветра в м/с - средняя за 10 мин, порывы в срок и между сроками (в фигурных скобках) и направление, откуда дует ветер: С - северный, СВ - северо-восточный, В - восточный, ЮВ - юго-восточный, Ю - южный, ЮЗ - юго-западный, З - западный, СЗ - северо-западный.
Видимость - горизонтальная дальность видимости в метрах или километрах. При видимости от 1 до 10 км при отсутствии осадков обычно наблюдается дымка, при ухудшении видимости до 1 км и менее - туман. В сухую погоду видимость может ухудшаться дымом, пылью или мглою.
Явления - указаны атмосферные явления, наблюдавшиеся в срок или в последний час перед сроком; фигурными скобками обозначены явления, наблюдавшиеся между сроками (за 1-3 часа до срока); квадратными скобками обозначены град или гололедные отложения с указанием их диаметра в мм.
Облачность - указаны через наклонную черту общая и нижняя облачность в баллах и высота нижней границы облаков в метрах; квадратными скобками обозначены формы облаков: Ci - перистые, Cs - перисто-слоистые, Cc - перисто-кучевые, Ac - высококучевые, As - высокослоистые, Sc - слоисто-кучевые, Ns - слоисто-дождевые, Cu - кучевые, Cb - кучево-дождевые. Подробнее классификацию облаков см. в Атласе облаков (PDF).
T - Температура воздуха - температура, измеренная на высоте 2 м над землей.
Td - Температура точки росы - температура, при понижении до которой содержащийся в воздухе водяной пар достигнет насыщения.
f - Относительная влажность воздуха - влажноcть воздуха, измеренная на высоте 2 м над землей.
Te - Эффективная температура - температура, которую ощущает одетый по сезону человек в тени. Характеристика душности погоды. При расчете учитывается влияние влажности воздуха и скорости ветра на теплоощущения человека.
Tes - Эффективная температура на солнце - температура, которую ощущает человек, с поправкой на солнечный нагрев. Характеристика знойности погоды. Зависит от высоты солнца над горизонтом, облачности и скорости ветра. Ночью, в пасмурную погоду, а также при ветре 12 м/с и более поправка равна нулю.
P - Атмосферное давление - приведенное к уровню моря атмосферное давление.
Po - Атмосферное давление - измеренное на уровне метеостанции атмосферное давление.
Tmin - Минимальная температура - минимум температуры воздуха на высоте 2 м над землей.
Tmax - Максимальная температура - максимум температуры воздуха на высоте 2 м над землей.
R - Количество осадков - Количество выпавших осадков за период времени, мм. При наведении курсора мыши на число - период времени, за который выпало указанное количество осадков.
R24 - Количество осадков - Количество выпавших осадков за 24 часа, мм.
S - Снежный покров - Высота снежного покрова, см. При наведении курсора мыши на число - состояние снежного покрова и степень покрытия местности в баллах.